Date String (YYYY-MM-DD hh:mm:ss) UTC,Instrument flags,Ambient pressure (hPa),Sample flow (lpm),Bypass flow (lpm),Sample temperature (°C),Ambient temperature (°C),ASC tube jacket temperature (°C),LED temperature (°C),Box temperature (°C),Sample RH (%),Span deviation,Mass concentration (μg/m³),Mass concentration (μg/m³),Mass concentration (μg/m³)
DateTimeUTC,F1_M11,P_M11,Q1_M11,Q2_M11,T1_M11,T2_M11,T3_M11,T4_M11,T5_M11,U1_M11,ZSPAN_M11,X2_M11,X0_M11,X1_M11
2021-12-05 02:00:00,,0822.4,5.00,0.00,29.0,28.2,00.0,38.0,30.7,08.2,0000.0,0001.79,0008.36,0001.29
2021-12-05 02:01:00,,0822.4,5.00,0.00,29.0,28.2,00.0,38.0,30.7,08.2,0000.0,0001.57,0006.51,0001.14
2021-12-05 02:02:00,,0822.4,5.01,0.00,29.0,28.2,00.0,38.0,30.6,08.2,0000.0,0001.47,0005.71,0001.04
2021-12-05 02:03:00,,0822.5,5.00,0.00,29.0,28.2,00.0,38.0,30.6,08.3,0000.0,0001.38,0005.33,0000.97
2021-12-05 02:04:00,,0822.4,4.99,0.00,29.0,28.2,00.0,38.0,30.6,08.3,0000.0,0001.30,0005.08,0000.92
2021-12-05 02:05:00,,0822.4,5.00,0.00,29.0,28.2,00.0,38.0,30.6,08.3,0000.0,0001.25,0005.71,0000.87
2021-12-05 02:06:00,,0822.4,5.01,0.00,29.0,28.1,00.0,38.0,30.5,08.4,0000.0,0001.15,0005.88,0000.79
2021-12-05 02:07:00,,0822.4,4.98,0.00,29.0,28.1,00.0,38.0,30.6,08.4,0000.0,0001.08,0005.69,0000.73
2021-12-05 02:08:00,,0822.3,5.01,0.00,29.0,28.1,00.0,38.0,30.6,08.4,0000.0,0001.02,0005.06,0000.68
2021-12-05 02:09:00,,0822.2,5.00,0.00,29.0,28.1,00.0,38.0,30.6,08.4,0000.0,0000.98,0006.66,0000.64
2021-12-05 02:10:00,,0822.2,5.00,0.00,29.0,28.1,00.0,38.0,30.6,08.4,0000.0,0001.00,0006.45,0000.63
2021-12-05 02:11:00,,0822.2,5.00,0.00,29.0,28.1,00.0,38.0,30.7,08.5,0000.0,0000.98,0005.81,0000.61
2021-12-05 02:12:00,,0822.1,5.00,0.00,28.9,28.1,00.0,38.0,30.7,08.5,0000.0,0000.97,0005.90,0000.59
2021-12-05 02:13:00,,0822.1,5.01,0.00,28.9,28.0,00.0,38.0,30.7,08.1,0000.0,0000.96,0006.85,0000.57
2021-12-05 02:14:00,,0822.3,4.99,0.00,28.9,28.0,00.0,38.0,30.7,08.1,0000.0,0000.99,0007.27,0000.56
2021-12-05 02:15:00,,0822.3,5.01,0.00,28.9,28.0,00.0,38.0,30.7,08.3,0000.0,0000.99,0008.01,0000.54
2021-12-05 02:16:00,,0822.3,4.99,0.00,28.9,28.0,00.0,38.0,30.6,08.3,0000.0,0001.01,0007.73,0000.54
2021-12-05 02:17:00,,0822.3,5.01,0.00,28.9,28.0,00.0,38.0,30.6,08.2,0000.0,0001.01,0007.89,0000.53
2021-12-05 02:18:00,,0822.4,4.99,0.00,28.9,27.9,00.0,38.0,30.6,08.1,0000.0,0001.01,0008.76,0000.52
2021-12-05 02:19:00,,0822.4,5.00,0.00,28.9,27.9,00.0,37.9,30.6,08.1,0000.0,0001.05,0008.76,0000.52
2021-12-05 02:20:00,,0822.4,4.99,0.00,28.9,27.9,00.0,37.9,30.6,08.1,0000.0,0001.04,0007.84,0000.51
2021-12-05 02:21:00,,0822.3,4.99,0.00,28.9,27.9,00.0,37.9,30.6,08.1,0000.0,0001.01,0007.92,0000.50
2021-12-05 02:22:00,,0822.3,5.00,0.00,28.8,27.8,00.0,37.9,30.5,08.2,0000.0,0001.03,0008.15,0000.50
2021-12-05 02:23:00,,0822.3,5.00,0.00,28.8,27.8,00.0,37.9,30.5,08.2,0000.0,0001.03,0008.08,0000.50
2021-12-05 02:24:00,,0822.4,5.02,0.00,28.8,27.8,00.0,37.9,30.4,08.1,0000.0,0000.99,0007.26,0000.49
2021-12-05 02:25:00,,0822.3,4.99,0.00,28.8,27.8,00.0,37.9,30.4,08.1,0000.0,0000.97,0007.15,0000.48
2021-12-05 02:26:00,,0822.3,5.01,0.00,28.8,27.8,00.0,37.9,30.4,08.2,0000.0,0000.93,0005.90,0000.48
2021-12-05 02:27:00,,0822.2,5.00,0.00,28.8,27.8,00.0,37.9,30.4,08.3,0000.0,0000.88,0005.55,0000.47
2021-12-05 02:28:00,,0822.2,5.00,0.00,28.8,27.8,00.0,37.9,30.4,08.4,0000.0,0000.86,0005.24,0000.46
2021-12-05 02:29:00,,0822.2,5.01,0.00,28.7,27.8,00.0,37.8,30.3,08.4,0000.0,0000.86,0003.35,0000.46
2021-12-05 02:30:00,,0822.2,5.00,0.00,28.7,27.8,00.0,37.8,30.3,08.5,0000.0,0000.81,0002.97,0000.45
2021-12-05 02:31:00,,0822.2,4.99,0.00,28.7,27.8,00.0,37.8,30.3,08.4,0000.0,0000.78,0002.41,0000.45
2021-12-05 02:32:00,,0822.2,5.02,0.00,28.7,27.8,00.0,37.8,30.3,08.4,0000.0,0000.78,0002.21,0000.46
2021-12-05 02:33:00,,0822.2,5.00,0.00,28.7,27.8,00.0,37.8,30.4,08.5,0000.0,0000.74,0001.80,0000.46
2021-12-05 02:34:00,,0822.1,5.00,0.00,28.7,27.8,00.0,37.8,30.3,08.4,0000.0,0000.72,0001.78,0000.45
2021-12-05 02:35:00,,0822.1,4.99,0.00,28.7,27.7,00.0,37.8,30.4,08.4,0000.0,0000.70,0001.71,0000.46
2021-12-05 02:36:00,,0822.1,5.01,0.00,28.7,27.7,00.0,37.8,30.4,08.3,0000.0,0000.68,0001.54,0000.46
2021-12-05 02:37:00,,0822.1,4.98,0.00,28.7,27.7,00.0,37.8,30.4,08.3,0000.0,0000.68,0001.48,0000.46
2021-12-05 02:38:00,,0822.2,5.00,0.00,28.7,27.7,00.0,37.7,30.3,08.3,0000.0,0000.68,0001.48,0000.46
2021-12-05 02:39:00,,0822.1,5.01,0.00,28.6,27.7,00.0,37.7,30.2,08.2,0000.0,0000.67,0001.40,0000.45
2021-12-05 02:40:00,,0822.1,4.98,0.00,28.6,27.7,00.0,37.7,30.2,08.2,0000.0,0000.63,0001.33,0000.44
2021-12-05 02:41:00,,0822.2,5.01,0.00,28.6,27.7,00.0,37.7,30.2,08.0,0000.0,0000.62,0001.27,0000.44
2021-12-05 02:42:00,,0822.1,4.99,0.00,28.6,27.7,00.0,37.7,30.2,07.9,0000.0,0000.62,0001.27,0000.43
2021-12-05 02:43:00,,0822.1,5.00,0.00,28.6,27.7,00.0,37.7,30.2,07.8,0000.0,0000.59,0001.22,0000.42
2021-12-05 02:44:00,,0822.1,4.99,0.00,28.6,27.7,00.0,37.7,30.2,07.8,0000.0,0000.62,0001.19,0000.41
2021-12-05 02:45:00,,0822.1,5.01,0.00,28.6,27.6,00.0,37.7,30.1,07.8,0000.0,0000.62,0001.20,0000.40
2021-12-05 02:46:00,,0822.1,4.99,0.00,28.5,27.7,00.0,37.7,30.2,07.7,0000.0,0000.62,0001.20,0000.39
2021-12-05 02:47:00,,0822.1,5.02,0.00,28.5,27.6,00.0,37.7,30.2,07.5,0000.0,0000.60,0001.14,0000.38
2021-12-05 02:48:00,,0822.1,4.99,0.00,28.5,27.6,00.0,37.6,30.1,07.5,0000.0,0000.61,0001.19,0000.38
2021-12-05 02:49:00,,0822.1,5.01,0.00,28.5,27.6,00.0,37.6,30.1,07.5,0000.0,0000.59,0001.15,0000.37
2021-12-05 02:50:00,,0822.1,4.99,0.00,28.5,27.6,00.0,37.6,30.1,07.4,0000.0,0000.57,0001.29,0000.37
2021-12-05 02:51:00,,0822.1,5.00,0.00,28.5,27.6,00.0,37.6,30.2,07.6,0000.0,0000.55,0001.23,0000.36
2021-12-05 02:52:00,,0822.1,5.01,0.00,28.5,27.6,00.0,37.6,30.2,07.5,0000.0,0000.57,0001.24,0000.36
2021-12-05 02:53:00,,0822.1,4.99,0.00,28.5,27.7,00.0,37.6,30.2,07.4,0000.0,0000.60,0001.35,0000.36
2021-12-05 02:54:00,,0822.1,5.01,0.00,28.5,27.7,00.0,37.6,30.2,07.3,0000.0,0000.60,0001.36,0000.35
2021-12-05 02:55:00,,0822.1,4.99,0.00,28.5,27.7,00.0,37.6,30.1,07.2,0000.0,0000.60,0001.34,0000.35
2021-12-05 02:56:00,,0822.1,5.00,0.00,28.5,27.7,00.0,37.6,30.1,07.3,0000.0,0000.60,0002.01,0000.35
2021-12-05 02:57:00,,0822.0,5.01,0.00,28.5,27.6,00.0,37.6,30.1,07.3,0000.0,0000.59,0002.17,0000.34
2021-12-05 02:58:00,,0822.0,4.99,0.00,28.5,27.6,00.0,37.6,30.1,07.3,0000.0,0000.60,0002.21,0000.34
2021-12-05 02:59:00,,0822.1,5.01,0.00,28.4,27.6,00.0,37.6,30.1,07.3,0000.0,0000.61,0002.27,0000.34
